TimeEST,TemperatureF,Dew PointF,Humidity,Sea Level PressureIn,VisibilityMPH,Wind Direction,Wind SpeedMPH,Gust SpeedMPH,PrecipitationIn,Events,Conditions,WindDirDegrees,DateUTC
12:15 AM,53.6,50.0,88,29.96,10.0,NNW,5.8,-,N/A,,Overcast,340,2012-11-07 05:15:00
12:35 AM,53.6,50.0,88,29.95,10.0,NNW,5.8,-,N/A,,Overcast,330,2012-11-07 05:35:00
12:55 AM,53.6,50.0,88,29.96,10.0,NNW,4.6,-,N/A,,Overcast,340,2012-11-07 05:55:00
1:15 AM,53.6,50.0,88,29.95,10.0,North,5.8,-,N/A,,Overcast,350,2012-11-07 06:15:00
1:35 AM,53.6,50.0,88,29.95,10.0,Calm,Calm,-,N/A,,Overcast,0,2012-11-07 06:35:00
1:55 AM,51.8,50.0,94,29.95,10.0,NW,3.5,-,N/A,,Overcast,320,2012-11-07 06:55:00
2:15 AM,51.8,50.0,94,29.95,10.0,WNW,4.6,-,N/A,,Overcast,300,2012-11-07 07:15:00
2:35 AM,51.8,50.0,94,29.96,10.0,WNW,5.8,-,N/A,,Overcast,300,2012-11-07 07:35:00
2:55 AM,51.8,50.0,94,29.96,10.0,WNW,4.6,-,N/A,,Overcast,300,2012-11-07 07:55:00
3:15 AM,51.8,48.2,88,29.95,10.0,NW,5.8,-,N/A,,Overcast,320,2012-11-07 08:15:00
3:55 AM,51.8,50.0,94,29.95,10.0,Calm,Calm,-,N/A,,Scattered Clouds,0,2012-11-07 08:55:00
4:15 AM,51.8,50.0,94,29.95,10.0,NW,3.5,-,N/A,,Mostly Cloudy,310,2012-11-07 09:15:00
4:35 AM,51.8,50.0,94,29.95,7.0,WNW,3.5,-,N/A,,Scattered Clouds,290,2012-11-07 09:35:00
4:55 AM,51.8,50.0,94,29.96,7.0,Calm,Calm,-,N/A,,Clear,0,2012-11-07 09:55:00
5:15 AM,50.0,48.2,94,29.96,7.0,Calm,Calm,-,N/A,,Scattered Clouds,0,2012-11-07 10:15:00
5:35 AM,50.0,48.2,94,29.97,5.0,WNW,3.5,-,N/A,,Mostly Cloudy,290,2012-11-07 10:35:00
5:55 AM,50.0,48.2,94,29.97,7.0,WNW,3.5,-,N/A,,Overcast,300,2012-11-07 10:55:00
6:15 AM,51.8,50.0,94,29.97,10.0,Calm,Calm,-,N/A,,Mostly Cloudy,0,2012-11-07 11:15:00
6:35 AM,51.8,50.0,94,29.98,10.0,West,3.5,-,N/A,,Overcast,270,2012-11-07 11:35:00
7:15 AM,50.0,48.2,94,29.98,10.0,West,4.6,-,N/A,,Overcast,260,2012-11-07 12:15:00
7:35 AM,50.0,48.2,94,29.98,7.0,Calm,Calm,-,N/A,,Scattered Clouds,0,2012-11-07 12:35:00
7:55 AM,50.0,48.2,94,29.98,7.0,WSW,3.5,-,N/A,,Clear,240,2012-11-07 12:55:00
8:15 AM,51.8,50.0,94,29.98,10.0,WSW,3.5,-,N/A,,Clear,240,2012-11-07 13:15:00
8:35 AM,51.8,50.0,94,29.98,10.0,West,6.9,-,N/A,,Clear,280,2012-11-07 13:35:00
8:55 AM,53.6,50.0,88,29.99,10.0,West,11.5,-,N/A,,Scattered Clouds,280,2012-11-07 13:55:00
9:15 AM,55.4,50.0,82,30.00,10.0,WNW,11.5,-,N/A,,Scattered Clouds,300,2012-11-07 14:15:00
9:35 AM,55.4,50.0,82,30.00,10.0,WNW,10.4,-,N/A,,Mostly Cloudy,290,2012-11-07 14:35:00
9:55 AM,57.2,48.2,72,30.00,10.0,WNW,9.2,-,N/A,,Scattered Clouds,290,2012-11-07 14:55:00
10:15 AM,59.0,46.4,63,30.00,10.0,WNW,12.7,-,N/A,,Scattered Clouds,300,2012-11-07 15:15:00
10:35 AM,59.0,44.6,59,29.99,10.0,WNW,12.7,17.3,N/A,,Scattered Clouds,290,2012-11-07 15:35:00
11:15 AM,60.8,44.6,55,29.98,10.0,WNW,11.5,-,N/A,,Scattered Clouds,290,2012-11-07 16:15:00
11:35 AM,60.8,44.6,55,29.98,10.0,WNW,10.4,-,N/A,,Scattered Clouds,300,2012-11-07 16:35:00
11:55 AM,62.6,44.6,52,29.97,10.0,WNW,11.5,18.4,N/A,,Scattered Clouds,300,2012-11-07 16:55:00
12:15 PM,62.6,44.6,52,29.95,10.0,WNW,11.5,17.3,N/A,,Scattered Clouds,300,2012-11-07 17:15:00
12:35 PM,62.6,42.8,48,29.95,10.0,NW,11.5,18.4,N/A,,Clear,310,2012-11-07 17:35:00
1:15 PM,64.4,41.0,42,29.93,10.0,West,13.8,25.3,N/A,,Scattered Clouds,280,2012-11-07 18:15:00
1:35 PM,64.4,41.0,42,29.93,10.0,WNW,15.0,21.9,N/A,,Scattered Clouds,300,2012-11-07 18:35:00
2:15 PM,62.6,41.0,45,29.91,10.0,NW,16.1,21.9,N/A,,Scattered Clouds,310,2012-11-07 19:15:00
2:35 PM,62.6,37.4,39,29.91,10.0,NW,16.1,24.2,N/A,,Scattered Clouds,310,2012-11-07 19:35:00
2:55 PM,62.6,37.4,39,29.91,10.0,WNW,16.1,20.7,N/A,,Scattered Clouds,290,2012-11-07 19:55:00
3:15 PM,64.4,37.4,37,29.90,10.0,WNW,18.4,24.2,N/A,,Mostly Cloudy,300,2012-11-07 20:15:00
3:35 PM,62.6,39.2,42,29.91,10.0,NNW,9.2,-,N/A,,Scattered Clouds,340,2012-11-07 20:35:00
3:55 PM,60.8,37.4,42,29.91,10.0,NW,9.2,17.3,N/A,,Scattered Clouds,320,2012-11-07 20:55:00
4:15 PM,62.6,37.4,39,29.92,10.0,WNW,9.2,-,N/A,,Scattered Clouds,290,2012-11-07 21:15:00
4:35 PM,62.6,35.6,37,29.93,10.0,NNW,10.4,-,N/A,,Mostly Cloudy,330,2012-11-07 21:35:00
4:55 PM,62.6,35.6,37,29.93,10.0,North,8.1,-,N/A,,Scattered Clouds,350,2012-11-07 21:55:00
5:15 PM,60.8,35.6,39,29.94,10.0,NNW,8.1,-,N/A,,Scattered Clouds,340,2012-11-07 22:15:00
5:35 PM,59.0,35.6,42,29.94,10.0,NNW,6.9,-,N/A,,Mostly Cloudy,330,2012-11-07 22:35:00
6:15 PM,59.0,37.4,45,29.97,10.0,NNW,5.8,-,N/A,,Mostly Cloudy,340,2012-11-07 23:15:00
6:35 PM,59.0,37.4,45,29.97,10.0,NNW,5.8,-,N/A,,Scattered Clouds,330,2012-11-07 23:35:00
6:55 PM,57.2,37.4,48,29.98,10.0,NNW,3.5,-,N/A,,Scattered Clouds,340,2012-11-07 23:55:00
7:15 PM,57.2,37.4,48,29.99,10.0,NNW,3.5,-,N/A,,Scattered Clouds,340,2012-11-08 00:15:00
7:35 PM,57.2,39.2,51,30.00,10.0,NNW,4.6,-,N/A,,Scattered Clouds,340,2012-11-08 00:35:00
7:55 PM,57.2,41.0,55,30.00,10.0,North,3.5,-,N/A,,Scattered Clouds,350,2012-11-08 00:55:00
8:15 PM,57.2,41.0,55,30.01,10.0,North,3.5,-,N/A,,Scattered Clouds,360,2012-11-08 01:15:00
8:35 PM,57.2,41.0,55,30.02,10.0,North,3.5,-,N/A,,Scattered Clouds,350,2012-11-08 01:35:00
8:55 PM,57.2,41.0,55,30.03,10.0,North,4.6,-,N/A,,Scattered Clouds,350,2012-11-08 01:55:00
9:15 PM,57.2,41.0,55,30.04,10.0,NNW,3.5,-,N/A,,Scattered Clouds,340,2012-11-08 02:15:00
9:55 PM,53.6,41.0,62,30.05,10.0,NW,3.5,-,N/A,,Scattered Clouds,310,2012-11-08 02:55:00
10:15 PM,53.6,41.0,62,30.05,10.0,NNW,4.6,-,N/A,,Scattered Clouds,330,2012-11-08 03:15:00
10:35 PM,53.6,41.0,62,30.06,10.0,NNW,3.5,-,N/A,,Scattered Clouds,330,2012-11-08 03:35:00
10:55 PM,53.6,41.0,62,30.06,10.0,NNW,4.6,-,N/A,,Scattered Clouds,330,2012-11-08 03:55:00
11:15 PM,51.8,41.0,67,30.07,10.0,NW,3.5,-,N/A,,Mostly Cloudy,320,2012-11-08 04:15:00
11:35 PM,51.8,42.8,71,30.07,10.0,WNW,5.8,-,N/A,,Scattered Clouds,300,2012-11-08 04:35:00